Whidbey Island, WA

1:36 PM PDT on May 25, 2017 (GMT -0700)
Whidbey Island Naval Air Station

Weather History for KNUW - January, 2014

Change the Weather History Date:

Thursday, January 9, 2014

  Actual Average Record
Temperature  
Mean Temperature 48 °F -  
Max Temperature 50 °F 44 °F 54 °F (2004)
Min Temperature 45 °F 34 °F 22 °F (1998)
Degree Days  
Heating Degree Days 18    
Moisture  
Dew Point 39 °F    
Average Humidity 73    
Maximum Humidity 83    
Minimum Humidity 63    
Precipitation  
Precipitation 0.03 in - - ()
Sea Level Pressure  
Sea Level Pressure 29.83 in    
Wind  
Wind Speed 22 mph (South)    
Max Wind Speed 36 mph    
Max Gust Speed 48 mph    
Visibility 9 miles    
Events Rain    
Averages and records for this station are not official NWS values.
T = Trace of Precipitation, MM = Missing Value Source: NWS Daily Summary

Daily Weather History Graph

Daily Weather History Graph

Search for Another Location

Airport or City:

Trip Planner

Search our weather history database for the weather conditions in past years. The results will help you decide how hot, cold, wet, or windy it might be!

Date:

Astronomy

Jan. 09, 2014 Rise Set
Actual Time 8:00 AM PST 4:35 PM PST
Civil Twilight 7:24 AM PST 5:11 PM PST
Nautical Twilight 6:44 AM PST 5:51 PM PST
Astronomical Twilight 6:07 AM PST 6:28 PM PST
Moon 12:16 PM PST (1/9) 2:01 AM PST (1/9)
Length of Visible Light 9h 47m
Length of Day
8h 35m
Waxing Gibbous, 67% of the Moon is Illuminated
Jan 9
Waxing Gibbous
Jan 15
Full
Jan 23
Last Quarter
Jan 30
New
Feb 6
First Quarter

Hourly Weather History & Observations

Time (PST) Temp. Windchill Dew Point Humidity Pressure Visibility Wind Dir Wind Speed Gust Speed Precip Events Conditions
12:56 AM 48.9 °F - 37.0 °F 64% 29.86 in 10.0 mi WSW 31.1 mph 39.1 mph N/A   Mostly Cloudy
1:56 AM 48.9 °F - 37.9 °F 66% 29.88 in 10.0 mi WSW 23.0 mph 36.8 mph N/A   Mostly Cloudy
2:56 AM 48.0 °F - 37.0 °F 66% 29.91 in 10.0 mi WSW 20.7 mph 29.9 mph N/A   Mostly Cloudy
3:56 AM 48.0 °F - 36.0 °F 63% 29.93 in 10.0 mi WSW 24.2 mph 29.9 mph N/A   Scattered Clouds
4:56 AM 48.0 °F - 37.0 °F 66% 29.94 in 10.0 mi WSW 24.2 mph 31.1 mph N/A   Partly Cloudy
5:56 AM 48.0 °F - 37.9 °F 68% 29.97 in 10.0 mi West 18.4 mph - N/A   Mostly Cloudy
6:56 AM 48.0 °F - 37.0 °F 66% 29.97 in 9.0 mi WSW 8.1 mph - N/A   Overcast
7:56 AM 45.0 °F 39.3 °F 37.9 °F 76% 29.96 in 8.0 mi SE 11.5 mph - N/A   Overcast
8:56 AM 45.0 °F 38.5 °F 37.9 °F 76% 29.98 in 8.0 mi SE 13.8 mph - N/A   Overcast
9:56 AM 45.0 °F 38.5 °F 37.9 °F 76% 29.97 in 9.0 mi SE 13.8 mph 24.2 mph N/A   Overcast
10:56 AM 46.0 °F 40.2 °F 37.9 °F 73% 29.95 in 9.0 mi ESE 12.7 mph - N/A   Overcast
11:56 AM 46.9 °F - 37.9 °F 71% 29.91 in 8.0 mi SE 17.3 mph - N/A   Overcast
12:36 PM 48.0 °F - 39.0 °F 71% 29.84 in 8.0 mi SE 23.0 mph 33.4 mph 0.00 in Rain Light Rain
12:48 PM 48.0 °F - 39.0 °F 71% 29.83 in 8.0 mi SE 26.5 mph 35.7 mph 0.00 in   Overcast
12:56 PM 48.0 °F - 39.0 °F 71% 29.83 in 8.0 mi SE 26.5 mph 39.1 mph 0.00 in   Overcast
1:05 PM 48.0 °F - 39.0 °F 71% 29.81 in 8.0 mi SE 27.6 mph 38.0 mph 0.00 in Rain Light Rain
1:56 PM 48.0 °F - 39.0 °F 71% 29.77 in 8.0 mi SE 25.3 mph 41.4 mph 0.00 in Rain Light Rain
3:20 PM 48.0 °F - 39.0 °F 71% 29.73 in 10.0 mi SSE 35.7 mph 48.3 mph 0.00 in Rain Light Rain
3:56 PM 48.0 °F - 39.0 °F 71% 29.74 in 10.0 mi SSE 25.3 mph 47.2 mph 0.00 in Rain Light Rain
4:39 PM 46.9 °F - 39.0 °F 74% 29.70 in 10.0 mi SSE 32.2 mph 40.3 mph 0.00 in Rain Light Rain
4:56 PM 46.9 °F - 39.0 °F 74% 29.69 in 10.0 mi SSE 29.9 mph 44.9 mph 0.00 in Rain Light Rain
5:56 PM 46.9 °F - 39.9 °F 77% 29.71 in 10.0 mi SSE 26.5 mph 34.5 mph 0.00 in Rain Light Rain
6:17 PM 46.9 °F - 41.0 °F 80% 29.71 in 10.0 mi SSE 17.3 mph 25.3 mph 0.00 in Rain Light Rain
6:56 PM 46.9 °F - 42.1 °F 83% 29.74 in 7.0 mi SSE 11.5 mph - 0.00 in Rain Light Rain
7:56 PM 48.9 °F - 43.0 °F 80% 29.74 in 8.0 mi WSW 15.0 mph - 0.01 in Rain Light Rain
8:32 PM 48.9 °F - 43.0 °F 80% 29.74 in 6.0 mi WSW 19.6 mph 27.6 mph 0.01 in Rain Light Rain
8:56 PM 48.9 °F - 43.0 °F 80% 29.75 in 10.0 mi WSW 21.9 mph 27.6 mph 0.02 in Rain Light Rain
9:05 PM 48.9 °F - 43.0 °F 80% 29.74 in 10.0 mi SW 18.4 mph - 0.00 in   Mostly Cloudy
9:56 PM 48.9 °F - 43.0 °F 80% 29.77 in 10.0 mi SW 17.3 mph 29.9 mph 0.00 in   Mostly Cloudy
10:56 PM 50.0 °F - 42.1 °F 74% 29.79 in 10.0 mi SW 20.7 mph 31.1 mph N/A   Mostly Cloudy
11:56 PM 50.0 °F - 41.0 °F 71% 29.83 in 10.0 mi SW 19.6 mph 27.6 mph N/A   Mostly Cloudy